Wind_Speed
9 7 8 10 5 5 4 6 7 8 7 8 9 11 13 13 13 14 15 17 17 17 16 16 17 17 17 17 18 18 17 18 18 19 21 21 21 20 21 23 25 27 26 27 27
9 7 5 6 2 6 6 7 9 9 9 9 11 13 14 15 15 16 18 19 19 19 19 19 19 20 19 19 19 18 17 19 21 21 22 23 24 24 24 25 29 30 30 32 33
6 7 6 5 5 9 10 11 13 14 14 13 14 16 17 17 18 20 21 21 22 23 23 22 21 20 20 20 20 19 21 22 24 25 25 25 24 25 25 29 27 29 33 32 35
8 7 8 10 10 12 14 16 18 19 19 18 18 19 20 21 23 24 25 25 25 25 25 23 22 21 22 21 22 23 23 24 26 26 25 26 26 26 28 28 28 30 32 35 37
10 10 9 9 12 16 19 21 21 22 23 23 23 24 24 25 27 27 28 28 28 27 24 23 22 22 23 22 23 25 27 27 26 26 25 25 28 29 32 31 33 32 33 35 38
11 11 12 14 16 18 19 19 22 25 27 28 27 28 29 30 29 30 29 29 28 26 24 23 23 24 26 25 24 26 25 27 26 26 27 27 29 30 34 35 37 38 38 39 43
10 11 12 16 17 19 21 24 24 25 27 29 30 30 31 31 30 30 29 27 26 26 25 25 25 25 26 27 26 26 24 26 27 29 30 30 30 33 33 36 37 39 42 46 50
12 14 17 20 23 22 19 19 23 27 27 28 29 29 28 28 28 27 26 26 25 26 26 26 26 27 26 25 25 26 27 27 30 31 34 37 34 37 39 40 42 44 46 49 52
17 19 21 24 25 23 20 20 20 21 24 24 25 25 23 23 23 23 25 25 26 26 26 25 26 26 24 27 29 31 32 32 33 36 39 41 41 41 44 46 46 48 51 54 56
19 20 22 23 24 23 20 20 20 20 19 20 21 21 21 22 22 22 24 25 25 25 24 24 24 27 30 32 34 35 35 36 38 40 42 44 46 47 49 51 53 54 57 60 62
21 22 22 23 22 24 21 19 17 16 15 14 15 16 17 19 19 19 19 20 21 23 23 25 30 31 34 36 37 38 38 41 43 46 48 49 48 51 55 56 58 59 60 63 65
22 23 23 23 23 22 21 20 19 17 15 16 16 15 16 18 19 19 20 21 22 25 26 29 34 34 35 38 40 42 44 46 47 49 53 54 51 55 60 62 62 65 66 67 68
23 24 24 24 24 23 22 19 19 19 17 18 17 20 20 20 21 23 22 24 27 30 32 34 36 37 38 40 42 44 48 51 52 54 55 59 58 60 65 66 67 69 70 71 72
25 25 25 25 23 24 23 21 20 19 18 20 22 19 22 24 24 25 27 29 32 33 34 37 39 41 43 44 47 52 52 55 56 60 63 65 70 67 72 74 74 74 76 77 79
27 26 26 25 25 25 24 23 23 21 21 23 21 23 25 26 30 29 31 31 32 34 36 38 42 44 47 49 51 54 55 58 60 65 70 71 76 73 75 78 75 75 78 78 78
28 27 27 28 27 27 27 25 24 24 25 23 26 26 30 30 30 29 31 33 36 38 40 42 46 51 51 55 57 59 63 65 67 69 73 75 77 80 78 75 76 74 72 73 72
30 28 28 28 29 29 28 27 25 25 26 26 29 32 31 29 31 33 36 39 42 44 47 50 52 54 56 59 61 65 68 72 74 74 74 75 77 76 71 70 68 66 62 58 54
35 35 33 33 35 33 30 28 27 26 27 30 31 32 31 32 36 38 42 47 48 51 54 56 59 62 65 69 70 71 72 72 75 77 78 76 77 76 73 66 60 53 46 41 38
31 33 32 35 35 32 31 27 26 26 26 28 30 33 35 37 40 43 47 51 52 54 55 60 65 69 72 72 71 72 72 71 71 73 76 77 72 75 61 57 53 49 42 39 37
33 36 37 34 33 31 29 27 26 26 28 30 33 35 38 40 45 48 52 53 56 58 63 68 72 74 75 76 74 74 73 67 63 67 70 70 64 60 57 53 50 48 49 39 40
40 38 36 32 31 27 26 25 27 29 31 33 35 38 41 45 48 50 53 58 62 65 68 71 74 75 76 73 72 70 63 59 61 60 57 60 60 52 50 51 51 48 44 42 42
40 37 30 26 26 25 26 28 30 32 34 37 39 43 45 47 51 54 57 61 63 65 68 72 76 80 76 74 71 66 62 54 54 56 54 55 59 45 49 47 42 40 37 36 34
46 38 32 29 30 29 30 32 34 35 37 41 44 45 48 52 58 61 63 66 67 69 72 74 77 77 76 70 68 61 52 48 52 54 52 50 52 41 38 40 38 38 37 36 33
37 37 32 32 33 34 35 35 37 38 42 44 47 50 53 58 61 64 68 72 73 72 74 76 77 71 71 64 56 54 51 50 50 50 48 46 45 32 35 35 32 31 30 29 28
40 40 39 37 36 37 38 41 44 46 48 50 53 57 58 61 66 69 72 73 75 75 70 68 69 64 61 52 52 52 48 43 45 42 42 38 31 31 29 30 31 28 27 28 28
41 39 40 42 41 43 45 46 47 48 50 55 58 62 66 67 72 74 79 81 81 78 69 64 60 58 59 49 48 46 42 41 40 36 36 28 22 25 22 25 27 29 30 31 30
42 41 42 44 45 46 49 51 53 55 56 61 65 67 71 74 78 83 81 79 78 70 63 60 56 54 54 46 48 44 37 33 31 25 26 22 20 20 21 25 28 30 31 32 32
Wind_Direction
290 279 318 338 323 183 227 270 293 298 281 271 274 283 290 287 286 288 293 297 301 303 305 306 305 304 302 299 296 294 294 293 292 293 294 293 290 286 283 283 283 283 286 287 287
298 272 308 335 204 187 242 265 283 301 290 282 280 281 284 287 290 292 294 298 302 303 303 303 300 300 299 296 294 293 294 293 291 290 288 288 289 289 287 287 285 289 290 290 289
318 292 283 287 233 220 244 267 283 289 294 288 285 283 286 288 292 297 300 302 302 303 304 302 299 299 297 295 291 292 293 293 291 290 288 286 283 280 285 285 287 287 286 287 287
24 350 298 282 272 259 259 265 273 277 283 286 287 286 287 288 295 296 298 300 301 301 302 300 298 298 295 294 291 290 289 287 287 286 288 289 288 288 284 284 286 287 286 284 284
17 7 352 333 303 286 280 278 279 281 285 287 287 286 286 289 293 295 297 298 299 299 298 297 294 293 289 286 285 286 289 287 286 286 285 285 288 291 287 288 286 284 283 284 285
359 358 353 342 323 304 294 288 284 283 283 283 283 282 285 288 291 293 294 297 298 296 294 291 290 289 285 284 283 284 283 285 284 283 284 287 290 288 288 287 285 283 283 286 286
349 348 359 354 338 321 303 286 285 284 282 282 281 281 283 286 288 291 293 294 293 292 291 291 289 287 287 286 287 285 286 285 284 287 289 290 291 293 294 290 286 284 283 282 282
334 338 340 336 343 334 306 303 291 285 285 283 284 282 284 285 286 287 289 288 288 289 290 290 288 287 288 290 290 290 290 291 293 293 293 294 296 299 294 291 289 285 281 279 279
331 332 328 331 337 340 328 312 304 303 296 291 291 289 289 288 290 290 288 288 289 290 291 291 291 291 293 295 295 296 296 296 294 294 293 296 299 297 295 291 288 285 283 281 279
326 331 331 334 338 343 337 328 322 316 315 307 299 297 292 289 287 287 289 291 292 293 295 295 291 293 295 296 296 296 297 298 297 296 295 296 296 296 293 290 289 287 285 283 284
323 325 328 331 337 341 340 334 334 329 323 316 306 298 296 295 295 294 294 294 294 294 294 292 293 295 298 300 300 301 302 300 299 296 297 296 296 294 291 290 287 285 284 284 285
318 320 323 329 334 337 337 334 332 329 324 319 314 307 306 304 300 298 297 296 295 294 295 294 295 297 300 299 300 301 302 301 300 299 299 298 299 297 294 292 291 288 286 284 281
316 316 321 325 330 333 332 327 324 318 314 312 308 304 302 298 297 297 298 298 298 298 298 298 299 301 300 299 299 298 300 300 301 301 300 298 299 297 294 295 294 290 287 285 283
311 311 313 317 320 326 324 320 312 307 310 307 305 298 299 301 303 301 299 298 298 299 301 302 304 303 303 304 305 305 304 303 303 302 304 302 301 302 298 296 293 291 291 289 289
311 313 315 318 321 321 319 316 309 305 300 306 299 300 300 303 303 303 302 303 304 305 306 305 305 306 306 306 304 303 302 302 302 302 302 299 296 299 296 293 292 290 288 287 285
313 316 317 315 317 319 317 313 310 302 300 300 298 297 302 304 304 305 306 307 306 308 307 309 308 310 310 309 306 304 303 302 302 298 299 297 295 297 295 295 292 292 289 287 286
310 312 316 317 320 320 320 313 306 300 302 300 299 302 305 306 307 309 310 308 309 309 309 309 311 310 308 305 305 304 303 300 299 296 295 295 293 298 295 294 295 293 292 289 287
305 304 303 305 312 317 317 313 308 304 304 303 306 308 311 311 309 311 312 313 314 314 315 316 314 313 312 311 307 303 302 299 300 300 300 299 299 301 299 303 300 300 297 292 290
313 317 312 308 307 308 310 308 307 303 302 303 306 307 310 310 310 313 315 315 315 316 316 315 315 313 310 306 303 302 300 301 300 299 298 300 300 300 309 305 306 304 295 285 270
311 313 309 310 309 307 306 306 305 306 308 308 308 308 310 314 316 316 314 314 315 317 314 312 312 310 307 305 304 304 304 304 304 303 301 305 304 307 308 306 301 295 290 281 270
317 315 310 307 304 303 304 303 304 306 309 312 312 311 312 313 313 313 314 315 317 313 310 309 309 308 305 304 302 301 301 301 299 298 299 302 302 307 304 298 297 295 291 286 267
319 314 306 302 300 300 300 299 301 304 307 308 309 310 312 313 314 313 312 312 310 308 305 305 305 305 303 299 300 301 302 303 302 302 299 299 302 309 300 301 296 294 293 289 283
307 308 301 299 301 301 301 300 302 305 308 311 313 313 313 314 313 313 314 311 309 305 304 304 301 299 299 299 302 302 306 301 297 298 301 297 311 306 300 296 302 302 299 300 296
309 301 297 298 298 300 300 301 302 305 309 311 311 311 312 313 314 315 315 313 309 304 302 301 300 300 301 303 303 303 303 300 297 297 296 302 302 305 301 306 304 304 305 303 301
305 300 300 298 297 298 300 300 303 305 308 310 311 312 314 315 315 313 310 308 306 303 301 300 299 300 302 305 300 302 303 300 295 297 295 305 304 301 302 305 308 310 308 306 304
296 296 296 297 297 299 302 304 305 307 308 309 312 315 314 314 314 312 311 308 304 301 300 299 303 302 303 303 300 304 304 296 296 296 296 293 302 300 304 304 305 306 307 304 300
296 297 296 297 297 300 303 303 303 306 309 310 311 311 312 313 313 311 308 304 302 303 302 303 303 301 305 301 300 305 300 299 301 295 287 295 300 297 301 307 312 311 310 309 306
Height
5886 5886 5885 5884 5883 5883 5885 5886 5886 5885 5885 5885 5885 5884 5884 5883 5883 5882 5881 5881 5879 5878 5877 5875 5874 5873 5872 5871 5869 5868 5867 5865 5864 5863 5861 5860 5859 5858 5857 5854 5852 5849 5849 5849 5847
5885 5885 5885 5884 5884 5885 5885 5885 5885 5884 5884 5883 5882 5882 5881 5881 5880 5880 5879 5877 5876 5875 5874 5873 5871 5870 5869 5868 5866 5865 5864 5862 5860 5859 5858 5857 5855 5854 5853 5851 5847 5846 5844 5842 5840
5884 5884 5884 5884 5884 5884 5884 5884 5884 5883 5882 5882 5880 5879 5878 5878 5878 5876 5875 5874 5873 5872 5870 5869 5868 5866 5865 5863 5862 5861 5860 5858 5856 5854 5853 5851 5851 5849 5848 5844 5845 5842 5839 5837 5833
5884 5883 5883 5883 5883 5883 5882 5882 5881 5880 5879 5878 5877 5876 5875 5874 5875 5873 5871 5870 5869 5868 5867 5865 5864 5863 5861 5860 5857 5856 5855 5853 5851 5849 5848 5846 5844 5843 5841 5841 5839 5836 5833 5830 5827
5884 5883 5883 5882 5881 5880 5879 5878 5878 5876 5876 5875 5874 5872 5871 5871 5870 5868 5867 5866 5864 5863 5862 5861 5859 5858 5856 5855 5854 5851 5849 5847 5846 5844 5843 5842 5839 5838 5833 5834 5832 5830 5827 5823 5820
5884 5883 5882 5880 5879 5877 5875 5873 5872 5871 5870 5869 5868 5867 5866 5866 5864 5863 5862 5861 5859 5858 5857 5856 5855 5853 5850 5849 5848 5847 5845 5842 5840 5839 5838 5838 5835 5833 5830 5829 5827 5824 5820 5817 5812
5883 5882 5880 5878 5876 5873 5870 5869 5867 5866 5864 5863 5862 5861 5861 5860 5858 5857 5856 5855 5854 5852 5851 5850 5849 5847 5845 5843 5842 5841 5840 5838 5837 5834 5832 5832 5830 5826 5824 5820 5819 5816 5813 5807 5803
5882 5880 5878 5876 5873 5869 5866 5864 5862 5860 5859 5857 5857 5856 5855 5854 5852 5851 5850 5849 5848 5847 5845 5844 5842 5840 5839 5838 5837 5836 5836 5833 5830 5828 5824 5822 5823 5818 5813 5811 5808 5805 5802 5796 5790
5879 5877 5875 5872 5869 5866 5862 5860 5857 5856 5854 5852 5852 5851 5850 5849 5848 5847 5845 5844 5843 5841 5840 5838 5836 5835 5834 5833 5832 5830 5828 5827 5824 5820 5815 5813 5810 5808 5802 5797 5795 5791 5787 5781 5776
5876 5874 5872 5869 5866 5863 5859 5856 5854 5852 5851 5849 5848 5848 5846 5844 5843 5842 5840 5839 5837 5836 5835 5833 5831 5830 5828 5826 5825 5822 5820 5818 5813 5810 5806 5804 5800 5794 5788 5783 5779 5775 5770 5764 5760
5873 5871 5869 5866 5863 5859 5856 5854 5853 5851 5848 5846 5845 5843 5842 5841 5839 5838 5836 5835 5834 5832 5830 5828 5825 5824 5822 5819 5815 5813 5810 5806 5803 5798 5794 5790 5788 5782 5774 5771 5765 5761 5757 5751 5746
5869 5867 5865 5862 5859 5855 5852 5849 5847 5846 5844 5842 5841 5839 5838 5837 5835 5834 5833 5832 5830 5828 5826 5824 5820 5818 5815 5810 5807 5802 5798 5794 5792 5786 5779 5775 5775 5768 5758 5754 5751 5745 5740 5735 5730
5865 5863 5861 5858 5854 5852 5848 5847 5843 5842 5841 5839 5838 5836 5835 5834 5832 5831 5829 5827 5824 5822 5819 5815 5812 5809 5805 5802 5798 5793 5787 5782 5778 5773 5768 5761 5762 5755 5743 5739 5734 5727 5721 5716 5709
5861 5858 5856 5854 5852 5847 5845 5842 5840 5838 5837 5836 5834 5831 5830 5828 5828 5825 5823 5821 5818 5815 5812 5807 5803 5799 5796 5791 5786 5779 5774 5769 5764 5756 5752 5744 5734 5741 5725 5718 5713 5706 5699 5692 5683
5856 5854 5851 5848 5846 5843 5841 5838 5836 5835 5833 5832 5829 5827 5825 5824 5821 5819 5816 5814 5811 5808 5805 5801 5794 5790 5785 5780 5774 5768 5761 5755 5750 5741 5733 5728 5713 5718 5710 5700 5696 5689 5678 5671 5665
5850 5848 5845 5843 5840 5838 5835 5833 5832 5831 5828 5827 5824 5822 5820 5818 5815 5812 5809 5807 5803 5800 5796 5791 5784 5778 5772 5765 5757 5751 5745 5739 5733 5723 5717 5709 5697 5694 5687 5679 5670 5665 5658 5651 5645
5844 5842 5839 5836 5834 5832 5829 5828 5827 5824 5823 5821 5818 5815 5814 5811 5808 5805 5802 5798 5794 5789 5784 5779 5772 5765 5759 5751 5743 5734 5726 5717 5713 5705 5700 5690 5675 5674 5664 5660 5654 5644 5637 5630 5625
5838 5836 5833 5830 5828 5825 5822 5821 5819 5817 5815 5813 5811 5808 5806 5804 5800 5796 5792 5786 5781 5775 5769 5764 5758 5749 5740 5732 5723 5713 5705 5693 5683 5679 5673 5671 5655 5652 5641 5640 5630 5624 5619 5614 5610
5832 5829 5826 5823 5820 5818 5816 5814 5812 5810 5808 5805 5803 5800 5798 5794 5791 5786 5780 5776 5771 5766 5760 5751 5746 5736 5726 5715 5707 5698 5688 5679 5667 5663 5650 5647 5647 5632 5626 5619 5615 5609 5605 5602 5599
5825 5822 5819 5816 5812 5810 5809 5807 5805 5803 5800 5799 5797 5794 5789 5785 5780 5775 5768 5763 5757 5752 5744 5736 5729 5721 5710 5701 5690 5678 5670 5663 5651 5640 5628 5628 5623 5618 5614 5606 5599 5596 5591 5591 5588
5818 5815 5811 5808 5806 5804 5802 5800 5798 5796 5793 5791 5787 5783 5780 5775 5771 5765 5759 5752 5746 5739 5731 5722 5715 5712 5697 5685 5675 5667 5656 5650 5641 5628 5618 5613 5615 5612 5603 5595 5590 5583 5578 5576 5577
5811 5809 5804 5800 5800 5797 5795 5793 5791 5787 5784 5781 5777 5773 5769 5764 5759 5753 5746 5738 5730 5722 5713 5706 5696 5691 5685 5671 5660 5651 5641 5631 5620 5618 5611 5601 5599 5600 5589 5583 5576 5571 5568 5565 5564
5803 5800 5797 5793 5790 5788 5786 5784 5781 5778 5775 5771 5767 5763 5759 5753 5747 5740 5733 5723 5715 5706 5695 5687 5674 5666 5667 5656 5647 5637 5633 5623 5611 5604 5601 5587 5587 5586 5579 5574 5569 5562 5560 5558 5554
5793 5791 5788 5785 5782 5779 5777 5775 5772 5769 5765 5761 5757 5752 5747 5742 5735 5727 5719 5709 5700 5689 5678 5664 5659 5651 5644 5637 5627 5626 5622 5612 5599 5593 5586 5588 5576 5578 5569 5564 5561 5557 5553 5549 5546
5784 5783 5779 5775 5773 5770 5767 5764 5761 5757 5754 5749 5744 5740 5735 5729 5722 5713 5704 5695 5685 5673 5661 5652 5643 5634 5632 5624 5614 5609 5606 5602 5589 5584 5575 5578 5574 5567 5564 5560 5555 5551 5547 5544 5541
5774 5771 5769 5766 5763 5760 5757 5754 5750 5746 5742 5737 5732 5725 5720 5714 5707 5699 5688 5678 5672 5660 5646 5636 5626 5618 5619 5611 5601 5598 5593 5585 5584 5576 5571 5568 5568 5561 5559 5555 5551 5547 5543 5539 5535
5763 5760 5758 5755 5752 5750 5746 5742 5738 5734 5729 5724 5719 5713 5705 5698 5689 5679 5668 5657 5647 5637 5630 5624 5614 5606 5606 5598 5592 5589 5580 5576 5574 5569 5565 5564 5561 5558 5555 5551 5546 5542 5537 5533 5528